Probability
0 0 0 0 0 0 0 0 0 0 0 0 0 0 0 0 0 0 0 0 0 0 0 0 0 0 0 0 0 0 0 0 0 0 0 0 0 0 0 0 0 0 0
0 0 0 0 0 0 0 0 0 0 0 0 0 0 0 0 0 0 0 0 0 0 0 0 0 0 0 0 0 0 0 0 0 0 0 0 0 0 0 0 0 0 0
0 0 0 0 0 0 0 0 0 0 0 0 0 0 0 0 0 0 0 0 0 0 0 0 0 0 0 0 0 0 0 0 0 0 0 0 0 0 0 0 0 0 0
0 0 0 0 0 0 0 0 0 0 0 0 0 0 0 0 0 0 0 0 0 0 0 0 0 0 0 0 0 0 0 0 0 0 0 0 0 0 0 0 0 0 0
0 0 0 0 0 0 0 0 0 0 0 0 0 0 0 0 0 0 0 0 0 0 0 0 0 0 0 0 0 0 0 0 0 0 0 0 0 0 0 0 0 0 0
0 0 0 0 0 0 0 0 0 0 0 0 0 0 0 0 0 0 0 0 0 0 0 0 0 0 0 0 0 0 0 0 0 0 0 0 0 0 0 0 0 0 0
0 0 0 0 0 0 0 0 0 0 0 0 0 0 0 0 0 0 0 0 0 0 0 0 0 0 0 0 0 0 0 0 0 0 0 0 0 0 0 0 0 0 0
0 0 0 0 0 0 0 0 0 0 0 0 0 0 0 0 0 0 0 0 0 0 0 0 0 0 0 0 0 0 0 0 0 0 0 0 0 0 0 0 0 0 0
0 0 0 0 0 0 0 0 0 0 0 0 0 0 0 0 0 0 0 0 0 0 0 0 0 0 0 0 0 0 0 0 0 0 0 0 0 0 0 0 0 0 0
0 0 0 0 0 0 0 0 0 0 0 0 0 0 0 0 0 0 0 0 0 0 0 0 0 0 0 0 0 0 0 0 0 0 0 0 0 0 0 0 0 0 0
0 0 0 0 0 0 0 0 0 0 0 0 0 0 0 0 0 0 0 0 0 0 0 0 0 0 0 0 0 0 0 0 0 0 0 0 0 0 0 0 0 0 0
0 0 0 0 0 0 0 0 0 0 0 0 0 0 0 0 0 0 0 0 0 0 0 0 0 0 0 0 0 0 0 0 0 0 0 0 0 0 0 0 0 0 0
0 0 0 0 0 0 0 0 0 0 0 0 0 0 0 0 0 0 0 0 0 0 0 0 0 0 0 0 0 0 0 0 0 0 0 0 0 0 0 0 0 0 0
0 0 0 0 0 0 0 0 0 0 0 0 0 0 0 0 0 0 0 0 0 0 0 0 0 0 0 0 0 0 0 0 0 0 0 0 0 0 0 0 0 0 0
0 0 0 0 0 0 0 0 0 0 0 0 0 0 0 0 0 0 0 0 0 0 0 0 0 0 0 0 0 0 0 0 0 0 0 0 0 0 0 0 0 0 0
0 0 0 0 0 0 0 0 0 0 0 0 0 0 0 0 0 0 0 0 0 0 0 0 0 0 0 0 0 0 0 0 0 0 0 0 0 0 0 0 0 0 0
0 0 0 0 0 0 0 0 0 0 0 0 0 0 0 0 0 0 0 0 0 0 0 0 0 0 0 0 0 0 0 0 0 0 0 0 0 0 0 0 0 0 0
0 0 0 0 0 0 0 0 0 0 0 0 0 0 0 0 0 0 0 0 0 0 0 0 0 0 0 0 0 0 0 0 0 0 0 0 0 0 0 0 0 0 0
0 0 0 0 0 0 0 0 0 0 0 0 0 0 0 0 0 0 0 0 0 0 0 0 0 0 0 0 0 0 0 0 0 0 0 0 0 0 0 0 0 0 0
0 0 0 0 0 0 0 0 0 0 0 0 0 0 0 0 0 0 0 0 0 0 0 0 0 0 0 0 0 0 0 0 0 0 0 0 0 0 0 0 0 0 0
0 0 0 0 0 0 0 0 0 0 0 0 0 0 0 0 0 0 0 0 0 0 0 0 0 0 0 0 0 0 0 0 0 0 0 0 0 0 0 0 0 0 0
0 0 0 0 0 0 0 0 0 0 0 0 0 0 0 0 0 0 0 0 0 0 0 0 0 0 0 0 0 0 0 0 0 0 0 0 0 0 0 0 0 0 0
0 0 0 0 0 0 0 0 0 0 0 0 0 0 0 0 0 0 0 0 0 0 0 0 0 0 0 0 0 0 0 0 0 0 0 0 0 0 0 0 0 0 0
0 0 0 0 0 0 0 0 0 0 0 0 0 0 0 0 0 0 0 0 0 0 0 0 0 0 0 0 0 0 0 0 0 0 0 0 0 0 0 0 0 0 0
0 0 0 0 0 0 0 0 0 0 0 0 0 0 0 0 0 0 0 0 0 0 0 0 0 0 0 0 0 0 0 0 0 0 0 0 0 0 0 0 0 0 0
0 0 0 0 0 0 0 0 0 0 0 0 0 0 0 0 0 0 0 0 0 0 0 0 0 0 0 0 0 0 0 0 0 0 0 0 0 0 0 0 0 0 0
Wind_Speed
25 11 11 14 14 14 15 18 18 18 16 13 12 11 11 9 7 7 9 9 8 8 7 6 5 5 4 4 4 3 3 2 2 3 5 5 4 3 1 2 3 3 4
22 9 9 10 15 18 18 19 20 21 20 15 11 6 6 5 5 6 8 9 9 8 8 8 6 5 4 4 3 3 3 2 3 3 3 5 6 5 3 3 3 3 4
24 14 9 11 13 17 20 19 21 19 17 13 9 7 5 4 4 7 8 8 9 8 7 8 6 6 5 5 4 4 5 4 2 2 3 1 3 5 4 4 3 4 5
18 15 10 10 14 16 15 16 17 17 14 15 15 17 13 12 12 8 8 8 9 9 8 8 7 7 5 6 5 4 4 5 3 2 2 2 2 2 6 4 2 4 4
15 13 11 11 10 11 13 14 15 15 14 16 16 16 12 8 5 6 9 8 7 8 8 8 7 7 6 6 6 5 5 4 4 3 2 1 0 2 2 8 8 6 3
14 9 6 7 8 9 10 12 15 15 15 17 17 18 16 12 10 10 11 9 6 7 9 8 7 7 6 6 6 5 6 5 5 4 3 3 2 2 2 4 5 10 8
9 6 9 10 12 14 14 13 15 15 17 19 20 21 18 17 16 13 13 12 9 8 12 9 8 7 6 6 6 5 6 7 6 4 3 3 3 2 2 4 5 5 6
5 8 10 11 13 14 15 15 17 15 17 19 19 16 14 13 12 13 12 14 11 10 12 10 10 9 8 8 7 5 5 5 6 5 4 2 2 1 1 2 4 7 5
7 6 6 8 10 13 16 17 18 17 18 18 15 14 15 15 13 11 10 9 7 8 11 11 12 11 10 10 9 6 6 6 5 5 4 3 1 1 1 0 1 4 7
6 5 6 8 9 11 13 13 16 19 16 14 14 12 13 13 10 10 12 11 10 10 13 12 12 11 11 10 8 6 6 7 6 4 4 3 2 1 1 1 2 3 5
7 8 8 8 8 8 10 12 13 13 13 16 15 14 13 12 11 11 13 13 12 14 15 15 14 13 12 11 9 8 8 8 7 6 5 4 3 2 2 3 4 5 5
7 8 9 7 8 11 12 15 15 16 18 16 15 16 14 14 15 15 14 15 15 15 15 15 15 14 13 11 11 10 9 9 9 7 6 6 4 5 4 4 5 5 6
8 7 7 8 11 13 14 16 17 18 15 13 14 15 15 17 19 18 16 17 17 16 16 16 16 15 13 12 11 10 9 9 8 8 8 7 7 7 6 5 5 5 6
10 11 10 10 12 13 15 16 17 16 13 14 16 18 20 20 19 17 17 18 18 18 18 16 15 14 13 13 12 11 10 9 8 8 8 8 8 7 6 5 5 5 6
10 12 13 13 12 13 14 16 17 16 15 16 18 20 18 15 14 16 16 17 17 17 17 15 14 13 12 12 13 12 11 10 9 8 8 8 10 11 9 6 6 6 6
14 14 13 13 13 14 16 16 17 16 15 18 19 16 14 14 16 16 16 16 16 15 15 16 16 15 12 19 22 15 12 11 10 9 8 8 9 11 13 14 13 13 10
20 21 21 21 18 16 16 17 17 13 14 17 15 13 15 16 17 16 17 18 17 16 16 16 16 16 17 25 25 22 13 11 9 9 8 6 6 7 7 10 14 14 19
20 18 19 22 23 21 17 14 10 9 13 13 13 14 16 16 16 17 18 18 15 16 16 16 16 15 17 26 26 24 13 10 10 9 8 7 6 7 8 8 8 11 13
15 13 13 14 19 20 18 11 6 6 9 12 14 15 16 16 17 19 18 14 15 14 14 13 13 13 15 25 25 22 9 9 10 9 9 8 8 11 13 9 9 12 13
14 14 15 14 15 17 15 11 6 4 8 8 8 9 11 13 15 15 13 10 12 13 13 12 11 11 11 21 24 21 7 8 8 7 7 10 12 12 13 8 9 12 12
15 16 16 14 13 13 12 11 9 7 4 1 5 8 9 11 11 11 11 12 12 13 12 12 11 11 11 19 24 22 9 9 7 6 5 7 11 12 13 13 8 13 15
16 15 16 17 13 10 9 11 12 7 2 3 5 7 8 8 9 11 12 13 14 14 12 12 11 9 10 12 19 23 18 14 7 6 6 6 10 11 14 11 11 17 14
18 16 16 19 16 11 8 11 12 5 2 3 5 7 8 8 9 11 12 12 12 12 12 12 12 11 10 13 21 23 22 20 9 7 9 6 7 9 8 10 13 9 4
17 16 18 19 19 16 12 12 10 6 7 8 8 9 10 10 10 10 11 12 13 13 13 13 13 12 11 11 11 10 11 14 10 6 4 3 3 4 6 7 7 5 6
16 16 16 19 21 20 19 15 9 7 10 10 10 11 12 12 12 12 12 14 13 15 15 13 13 15 14 16 21 14 8 6 7 7 3 2 1 1 3 4 5 5 6
17 17 19 20 21 19 20 18 11 9 11 10 11 10 10 10 10 11 10 19 16 21 23 19 15 11 16 26 27 24 20 18 16 8 3 2 1 3 4 4 5 6 6
Wind_Direction
263 240 209 206 202 196 189 183 178 173 169 172 173 174 181 176 175 176 173 172 170 166 161 158 157 160 156 154 147 127 102 59 8 20 345 329 322 312 239 314 339 11 23
266 240 216 205 198 194 187 181 180 176 179 181 177 166 150 160 171 171 175 176 175 173 170 163 161 164 149 147 158 152 127 83 40 71 30 348 339 330 343 329 338 23 26
267 262 221 209 196 191 185 183 181 178 177 163 146 129 116 110 164 185 183 184 178 175 170 167 159 161 153 160 178 177 144 132 83 79 112 74 300 296 297 316 339 9 14
257 255 227 203 197 193 182 179 177 175 170 163 167 170 183 190 190 179 176 177 178 177 172 167 164 163 159 166 180 193 150 132 132 103 96 140 163 306 316 309 331 346 348
249 239 219 203 191 175 172 173 170 171 168 171 175 183 193 189 152 149 168 177 182 179 173 169 168 169 164 169 176 178 151 131 139 144 138 128 119 209 260 305 319 322 309
255 232 203 169 162 159 164 169 171 174 172 175 180 190 192 178 168 175 179 181 179 182 180 173 173 174 169 171 171 177 154 134 133 142 152 160 170 183 204 264 299 303 305
251 204 178 173 170 170 172 174 178 181 181 184 189 195 194 188 189 184 184 182 181 188 187 175 174 175 174 165 159 166 158 145 148 158 166 174 189 194 214 271 284 274 279
244 211 194 183 180 179 177 179 185 188 189 194 198 196 192 193 196 188 188 191 191 185 179 173 169 168 165 162 160 165 170 151 150 161 162 167 192 205 246 283 306 302 281
259 237 203 185 180 181 187 189 189 192 196 199 196 196 196 197 195 185 183 188 179 168 169 171 170 169 167 166 165 172 172 155 150 154 155 157 160 146 103 17 310 292 302
257 227 209 203 196 193 193 196 199 199 197 195 197 199 201 202 189 175 184 181 172 167 168 172 170 169 168 168 166 167 170 154 142 137 136 132 122 118 127 235 254 246 260
240 229 226 215 202 196 197 205 209 202 195 197 197 195 195 191 184 185 184 178 173 170 174 173 170 172 172 170 169 173 172 154 141 141 146 161 169 205 217 231 246 254 258
238 232 232 224 211 209 208 210 211 211 210 201 194 197 191 185 190 192 184 176 175 173 174 173 172 174 174 173 173 174 173 159 156 158 162 180 186 204 216 227 246 256 262
274 266 252 237 229 224 218 216 215 217 212 197 195 195 192 193 197 193 182 176 174 173 174 174 175 175 174 174 174 173 173 165 160 161 171 186 197 211 216 224 241 256 273
269 275 268 251 239 231 224 221 221 217 208 198 199 200 200 200 197 188 181 178 174 174 176 177 175 173 171 171 172 173 169 162 161 166 178 193 206 216 217 225 235 247 264
271 267 265 260 248 236 230 224 225 216 205 202 204 207 203 195 184 181 179 176 175 177 175 171 171 170 170 173 174 174 166 161 164 174 188 204 215 222 220 218 217 227 246
337 323 300 278 261 245 238 228 225 215 199 203 208 203 188 182 182 179 175 173 172 172 171 173 171 172 176 183 182 171 165 164 170 178 193 210 220 234 246 253 255 251 253
357 351 343 327 301 275 255 243 230 210 197 204 203 189 181 181 180 175 174 174 173 171 175 175 175 176 182 184 181 174 164 167 172 180 194 208 214 215 237 256 267 272 272
344 339 335 333 324 303 280 259 241 203 198 200 195 185 183 181 175 175 178 176 171 175 178 179 179 177 186 184 181 175 165 165 173 187 198 210 222 230 240 248 254 258 262
324 321 320 322 326 324 316 296 255 207 197 199 195 188 183 178 177 181 181 173 170 174 177 176 177 177 186 185 182 173 157 167 181 194 201 213 224 240 255 261 261 268 269
326 324 322 321 325 328 330 322 297 237 218 210 192 176 177 178 182 181 173 166 166 169 171 173 174 173 180 186 183 170 158 171 182 197 210 219 225 238 255 257 260 273 282
317 319 317 315 316 321 329 328 314 289 283 177 149 158 171 175 172 165 164 161 163 164 170 164 166 170 178 190 184 178 166 177 177 187 203 220 234 250 264 272 272 280 289
316 316 314 313 313 315 319 312 300 294 290 149 150 159 163 163 163 162 162 164 164 165 168 164 166 171 176 191 189 188 181 181 173 186 197 213 242 265 279 286 284 291 303
314 315 313 311 310 310 298 291 291 283 215 175 172 166 162 164 167 167 166 169 171 172 176 176 175 173 172 186 190 191 187 184 170 179 192 213 268 291 297 295 299 308 306
308 314 315 311 308 310 301 283 277 233 205 197 187 177 174 175 174 174 174 180 184 184 182 183 178 171 170 177 180 180 181 181 165 146 126 77 338 304 296 298 303 294 279
306 308 306 303 302 305 303 300 279 223 216 208 194 186 186 184 184 189 193 195 199 195 186 184 177 172 174 180 176 166 160 150 139 121 94 80 64 292 279 281 284 285 285
302 304 301 297 297 300 298 300 291 241 222 215 204 196 191 191 189 190 199 212 205 209 203 193 182 178 174 169 169 168 170 168 155 130 122 138 199 256 270 280 289 291 291